Location: Unspecified
(0.0000°N, 0.0000°E)
Time: 13:38:32
(UTC+00:00)

Altair - Pass Details

Date: 27 October 2021
Orbit: 1502 x 1682 km, 47.2° (Epoch: 26 November)

Event Time Altitude Azimuth Distance (km) Brightness Sun altitude
Rises 11:58:35 0° 299° (WNW) 4,903 10.1 76.5°
Reaches altitude 10° 12:02:07 10° 291° (WNW) 3,928 9.8 76.3°
Maximum altitude 12:10:58 35° 229° (SW) 2,493 9.5 75.4°
Drops below altitude 10° 12:19:51 10° 167° (SSE) 3,921 9.9 74.3°
Sets 12:23:26 0° 158° (SSE) 4,893 10.3 73.7°
